Cloud_Cover
0 0 0 0 0 0 0 0 0 0 0 0 0 0 0 0 0 0 0 0 3 2 0 7 0 0 71 0 0 0 0 0 2 17 19 1 0 98 100 100 95 14 0 0 0 0 1 39 32
10 0 0 0 0 0 0 0 0 0 0 0 0 0 0 0 0 0 0 0 0 2 0 0 0 0 0 89 0 0 5 9 11 27 100 13 0 62 100 100 97 5 0 0 0 0 4 53 0
4 0 2 0 0 0 0 0 0 0 0 0 0 0 0 0 0 0 0 0 0 0 0 0 0 0 0 0 0 0 9 13 5 3 99 88 7 35 100 100 54 0 0 0 56 6 2 0 1
44 16 3 5 0 0 0 0 0 0 0 0 0 0 0 0 0 0 0 0 0 0 0 3 0 0 0 0 0 0 4 66 76 99 100 100 90 100 100 77 4 22 77 3 0 0 0 0 0
83 5 5 5 4 0 0 0 0 0 0 0 0 0 0 0 0 0 0 0 0 0 0 0 3 4 0 0 0 0 0 1 82 99 100 100 100 100 96 15 1 100 72 4 0 0 0 0 0
5 5 1 0 0 0 0 0 0 0 0 0 0 0 0 0 0 0 0 0 0 0 0 0 0 5 5 0 0 0 1 1 4 90 100 100 100 100 97 12 92 100 59 0 0 0 52 10 8
19 23 7 5 3 0 0 0 0 0 0 0 0 0 0 0 0 0 0 0 0 0 0 0 0 0 5 4 0 0 0 0 0 2 100 100 100 76 65 100 99 70 48 59 25 5 98 84 17
0 0 0 0 0 0 0 0 0 0 0 0 0 0 0 0 0 0 0 0 0 0 0 0 0 0 5 5 2 1 0 2 0 0 100 99 100 100 100 100 96 98 100 100 24 5 97 50 79
0 0 0 0 0 0 0 0 0 0 0 0 0 0 0 0 0 0 0 0 0 0 0 0 0 0 0 3 5 4 3 5 1 16 99 100 68 100 100 90 100 100 95 100 46 42 40 100 100
0 0 0 0 0 0 0 0 0 0 0 0 0 0 0 0 0 0 0 0 0 0 0 0 1 0 1 0 8 10 5 1 1 95 94 100 72 74 91 100 100 100 100 99 75 60 95 62 24
100 81 0 0 0 0 0 0 0 0 0 0 0 0 0 0 0 0 0 0 0 0 0 0 0 5 6 7 42 53 47 11 62 100 100 100 84 100 94 100 100 100 100 100 100 91 32 22 19
1 5 6 79 5 3 0 0 0 0 0 0 0 0 0 0 0 0 0 0 0 0 0 0 0 3 26 11 35 36 68 57 58 96 100 100 75 100 100 100 100 100 100 100 100 100 100 72 74
0 0 0 0 0 1 0 0 0 0 0 0 0 0 0 0 0 0 0 0 0 0 0 0 0 0 21 27 36 37 56 71 96 72 100 100 73 84 100 100 100 100 100 100 100 100 100 100 78
0 0 0 0 0 0 0 0 0 4 0 0 0 0 0 0 0 0 0 0 0 0 0 0 0 0 15 48 15 32 42 26 99 93 99 88 86 3 98 100 99 100 100 100 100 100 100 100 100
0 0 0 0 0 0 0 0 0 0 0 0 0 0 0 0 0 0 0 0 0 0 0 0 0 0 1 23 5 2 40 73 100 97 100 100 86 77 94 100 96 100 100 100 100 100 100 100 100
0 0 0 0 0 0 0 0 0 0 0 0 0 0 0 0 0 0 0 0 0 0 0 0 0 0 0 13 52 46 98 100 100 100 100 100 100 100 4 100 100 100 40 100 100 100 100 100 100
0 0 0 0 0 4 5 0 9 37 1 0 0 0 0 0 0 0 0 0 0 0 0 0 0 0 16 41 36 5 0 90 53 100 100 100 100 100 76 99 100 100 62 94 100 100 100 100 100
0 34 0 0 2 95 5 0 52 100 5 0 0 0 0 0 0 0 0 0 0 0 0 0 8 13 57 77 88 73 42 53 49 88 100 100 100 100 100 24 98 98 52 79 99 100 100 100 100
0 0 0 0 0 4 2 0 2 100 41 0 0 0 0 0 0 0 0 0 0 14 0 23 80 88 100 100 100 100 100 100 96 53 67 100 100 100 100 70 84 91 87 100 100 99 100 100 100
4 58 32 0 0 0 0 0 1 89 58 5 0 0 0 2 2 0 0 2 55 35 88 95 100 100 100 64 29 14 14 53 80 68 29 100 100 100 100 100 60 76 100 97 54 71 100 100 100
72 96 3 0 1 13 14 1 5 100 100 17 0 4 46 82 6 5 2 0 100 100 100 100 100 100 100 82 37 40 36 97 99 98 43 100 100 100 100 100 100 9 67 100 66 5 100 100 100
0 0 1 0 5 5 88 8 0 100 99 6 5 17 97 100 69 5 2 0 98 100 100 100 100 73 9 11 8 2 8 29 58 82 100 85 100 100 100 100 100 6 5 69 78 80 100 100 100
0 0 0 5 37 83 5 61 0 100 100 57 5 62 100 100 36 5 5 2 23 75 99 100 100 100 88 100 96 20 0 0 5 73 100 100 100 100 100 100 100 100 80 28 70 100 70 100 100
0 1 17 100 100 86 2 100 5 100 100 63 5 76 100 100 13 5 5 5 5 2 48 95 100 100 100 100 100 76 49 95 12 6 94 100 100 100 100 100 100 100 64 84 98 100 100 100 100
1 10 98 100 100 78 23 36 11 61 100 97 87 96 100 99 74 8 5 32 56 5 4 24 81 100 100 100 99 70 28 63 29 50 100 100 100 100 100 100 100 100 100 100 88 100 100 100 100
53 100 100 100 100 79 100 100 100 100 100 100 100 100 100 100 99 100 100 93 99 20 37 87 29 99 100 100 99 70 51 94 93 99 100 100 100 100 100 100 100 100 100 100 100 100 100 100 100
96 100 100 100 100 88 92 100 100 100 100 90 100 100 100 100 100 100 100 100 100 93 100 100 100 100 100 100 100 100 100 100 94 100 100 100 100 100 100 100 100 100 100 100 100 100 100 100 100
75 75 100 100 100 97 98 100 100 100 100 100 100 100 100 100 100 100 100 90 100 100 100 100 100 100 98 100 100 100 100 100 100 100 100 100 100 100 100 100 100 100 100 100 100 100 100 100 100
93 49 100 100 100 100 100 100 100 100 100 100 100 100 100 100 100 100 100 100 100 100 100 100 100 100 100 100 100 100 100 100 100 100 100 100 100 100 100 100 100 100 100 100 97 100 100 100 100
98 100 100 100 100 100 100 100 100 100 100 100 100 100 100 100 100 100 100 100 100 100 100 100 100 100 100 100 100 100 100 100 100 100 100 100 100 100 100 100 100 100 100 100 100 100 100 100 100